Regional Weather Roundup
Issued by NWS Charleston, WV

Home | Current Version | Previous Version | Graphics & Text | Print | Product List | Glossary On
Versions: 1 2 3 4 5 6 7 8 9 10 11 12 13 14 15 16 17 18 19 20 21 22 23 24 25 26 27 28 29 30 31 32 33 34 35 36 37 38 39 40 41 42 43 44 45 46 47 48 49 50
000
ASUS41 KRLX 172210
RWRRLX
West Virginia Regional Weather Roundup
National Weather Service Charleston WV
500 PM EST WED DEC 17 2014

Note: "fair" indicates few or no clouds below 12,000 feet with no
significant weather and/or obstructions to visibility.

WVZ003-172300-
Northern Panhandle of West Virginia

CITY           SKY/WX    TMP DP  RH WIND       PRES   REMARKS
WHEELING       CLOUDY    31  23  72 W8        30.09S
$$

WVZ009-172300-
Northwest West Virginia

CITY           SKY/WX    TMP DP  RH WIND       PRES   REMARKS
PARKERSBURG    CLOUDY    33  23  66 W8        30.18S
$$

WVZ006-172300-
Western West Virginia

CITY           SKY/WX    TMP DP  RH WIND       PRES   REMARKS
HUNTINGTON     CLOUDY    34  25  69 W6        30.18S
$$

WVZ015-172300-
West Central West Virginia

CITY           SKY/WX    TMP DP  RH WIND       PRES   REMARKS
CHARLESTON     CLOUDY    37  28  70 VRB6      30.16R
$$

WVZ022-031-172300-
North Central West Virginia

CITY           SKY/WX    TMP DP  RH WIND       PRES   REMARKS
CLARKSBURG     CLOUDY    33  29  85 W8        30.11S
MORGANTOWN     CLOUDY    34  22  61 VRB6      30.10S
$$

WVZ025-035-042-045-172300-
Southern West Virginia

CITY           SKY/WX    TMP DP  RH WIND       PRES   REMARKS
BECKLEY        PTCLDY    36  26  67 NW8       30.08R
LOGAN          CLOUDY    36  30  80 NW6       30.13R
BLUEFIELD      CLEAR     38  27  64 W9        30.07S
LEWISBURG      PTCLDY    37  27  68 NW6       30.07R
$$

WVZ047-172300-
Northern Mountains of West Virginia

CITY           SKY/WX    TMP DP  RH WIND       PRES   REMARKS
ELKINS         CLOUDY    32  26  78 SW6       30.09R
$$

WVZ052-172300-
Eastern Panhandle of West Virginia

CITY           SKY/WX    TMP DP  RH WIND       PRES   REMARKS
MARTINSBURG    CLOUDY    42  23  46 NW12      30.03R
PETERSBURG     MOCLDY    40  24  52 SW5       30.07R
$$


USA.gov is the U.S. government's official web portal to all federal, state and local government web resources and services.